PulseSat

PulseSat

INTELSAT 906 (IS-906)

Last updated on Dec. 19, 2018, 12:08 a.m. UTC

1 27513U 02041A   18352.14093684  .00000031  00000-0  00000+0 0  9992
2 27513   0.0127 303.1564 0002057 323.1651 295.2711  1.00272351 59515
UTC
Height (km)
Latitude
Longitude
Inclination
Orbital Period

Next 30 passes for location: Hong Kong

Rise time Rise Azimuth (degrees) Set time Set Azimuth (degrees) Duration Max altitude (degrees)

No matching passes for this satellites

PulseSat

PulseSat is the new satellites software and hardware trackering solution by Pulsely.
Satellite Two Line Element Set source: US Air Force Space Command

Download PulseSat for iOS
© 2017 Pulsely Limited